Location: Byszew
(52.1813°N, 19.2693°E)
Time: 03:08:37
(UTC+00:00)

Envisat - Pass Details

Date: 27 January 2022
Orbit: 764 x 765 km, 98.2° (Epoch: 28 May)

Event Time Altitude Azimuth Distance (km) Brightness Sun altitude
Rises 02:01:32 0° 30° (NNE) 3,243 6.9 -40.6°
Reaches altitude 10° 02:05:26 10° 60° (ENE) 2,310 6.1 -40.1°
Maximum altitude 02:07:27 12° 84° (E) 2,153 5.9 -39.8°
Drops below altitude 10° 02:09:27 10° 107° (ESE) 2,303 5.9 -39.5°
Sets 02:13:19 0° 137° (SE) 3,222 6.5 -39.0°
